User: anonymous   Login
Location: Unspecified
(0.0000°N, 0.0000°E)
Time: 05:32:12
(UTC+00:00)
Language:

GONETS M 13 (M23) - Orbit

View from above orbital plane
View from above orbital plane
View from above satellite
View from above satellite

Ground track
Ground track

The orbit data is extracted from the following two-line orbital elements,

1 40554U 15020C   17177.82627066 +.00000010 +00000-0 +00000-0 0  9997
2 40554 082.4864 272.8593 0011573 276.2220 083.7538 12.42892042101646
Epoch (UTC): 26 June 2017 19:49:49
Eccentricity: 0.0011573
inclination: 82.4864°
perigee height: 1485 km
apogee height: 1503 km
right ascension of ascending node: 272.8593°
argument of perigee: 276.2220°
revolutions per day: 12.42892042
mean anomaly at epoch: 83.7538°
orbit number at epoch: 10164

The dashed part of the orbit path shows where the satellite is in the earth's shadow,  

DLR